This demonstration page uses our WeatherBlox Daily Observations layout. Learn more.

Left ArrowRight Arrow

39.01783, -85.05884

Hourly Observations for March 21, 2017

Temp ( °F °C ) Dew Point ( °F °C ) Humidity (%) Winds ( mph kmh ) Pressure ( in mb ) Visibility ( mi km ) Precip ( " mm )
12:15 am 00:15 Cloudy 48 8.9 46 7.8 93 93 NNE 6 9 30.00 1016 7 11 0.00 0.00
12:52 am 00:52 Cloudy 49 9.4 47 8.3 93 93 Calm 29.99 1016 8 13 0.00 0.00
1:52 am 01:52 Cloudy 49 9.4 46 7.8 90 90 N 3 6 30.00 1016 8 13 0.00 0.00
2:52 am 02:52 Cloudy with Mist and Fog 48 8.9 47 8.3 96 96 W 3 6 29.99 1016 5 8 0.00 0.00
3:52 am 03:52 Cloudy with Mist and Fog 48 8.9 46 7.8 93 93 N 6 9 29.97 1015 5 8 0.00 0.00
4:52 am 04:52 Cloudy with Mist and Fog 47 8.3 46 7.8 97 97 N 10 17 30.00 1016 3 5 0.00 0.00
5:22 am 05:22 Cloudy with Mist and Fog 46 8 46 8 100 100 N 13 20 30.03 1017 5 8 0.00 0.00
5:52 am 05:52 Cloudy with Mist and Fog 48 8.9 46 7.8 93 93 N 10 17 30.01 1016 5 8 0.00 0.00
6:52 am 06:52 Cloudy with Mist and Fog 47 8.3 46 7.8 97 97 N 10 17 30.03 1017 4 6 0.00 0.00
7:24 am 07:24 Cloudy with Mist and Fog 46 8 46 8 100 100 N 8 13 30.09 1019 3 5 0.00 0.00
7:42 am 07:42 Cloudy with Mist and Fog 46 8 46 8 100 100 N 9 15 30.09 1019 3 4 0.00 0.00
7:52 am 07:52 Cloudy with Mist and Fog 47 8.3 46 7.8 97 97 N 9 15 30.06 1018 3 4 0.00 0.00
8:52 am 08:52 Cloudy with Mist and Fog 48 8.9 46 7.8 93 93 N 8 13 30.08 1019 3 4 0.00 0.00
9:52 am 09:52 Cloudy with Mist and Fog 46 7.8 45 7.2 96 96 N 14 22 30.11 1020 1 2 0.00 0.00
10:52 am 10:52 Cloudy with Mist and Fog 46 7.8 43 6.1 89 89 N 10 17 30.12 1020 3 4 0.00 0.00
11:04 am 11:04 Cloudy with Mist and Fog 46 8 43 6 87 87 NNE 10 17 30.15 1021 3 5 0.00 0.00
11:37 am 11:37 Cloudy with Mist and Fog 48 8.9 43 6.1 83 83 NNE 7 11 30.15 1021 5 8 0.00 0.00
11:52 am 11:52 Cloudy with Haze 49 9.4 43 6.1 80 80 ENE 7 11 30.13 1020 5 8 0.00 0.00
12:21 pm 12:21 Mostly Cloudy with Haze 51 10.6 44 6.7 77 77 ENE 7 11 30.12 1020 6 10 0.00 0.00
12:52 pm 12:52 Mostly Cloudy 53 11.7 44 6.7 72 72 VRB 5 7 30.11 1020 7 11 0.00 0.00
1:52 pm 13:52 Mostly Cloudy 55 12.8 43 6.1 64 64 VRB 3 6 30.11 1020 8 13 0.00 0.00
2:52 pm 14:52 Cloudy 58 14.4 43 6.1 58 58 Calm 30.08 1019 8 13 0.00 0.00
3:52 pm 15:52 Mostly Cloudy 60 15.6 43 6.1 53 53 N 8 13 30.06 1018 10 16 0.00 0.00
4:52 pm 16:52 Cloudy 60 15.6 43 6.1 53 53 N 8 13 30.08 1019 10 16 0.00 0.00
5:52 pm 17:52 Cloudy 59 15 41 5 51 51 N 12 19 30.09 1019 10 16 0.00 0.00
6:52 pm 18:52 Cloudy 57 13.9 36 2.2 45 45 NNW 16 26 30.10 1019 10 16 0.00 0.00
7:52 pm 19:52 Cloudy 54 12.2 34 1.1 47 47 N 20 31 30.12 1020 10 16 0.00 0.00
8:52 pm 20:52 Cloudy 50 10 38 3.3 63 63 N 17 28 30.14 1021 10 16 0.00 0.00
9:52 pm 21:52 Cloudy 48 8.9 36 2.2 63 63 NNW 9 15 30.16 1021 10 16 0.00 0.00
10:52 pm 22:52 Cloudy 48 8.9 35 1.7 61 61 NNW 12 19 30.17 1022 10 16 0.00 0.00
11:52 pm 23:52 Clear 44 6.7 26 -3.3 49 49 N 16 26 30.19 1022 10 16 0.00 0.00

Powered by AerisWeather